{"data":{"norad_id":66296,"intl_designator":"2025-248D","name":"BANDWAGON-4 OBJECT D","alt_names":[],"object_type":"PAYLOAD","status":"ACTIVE","operator":null,"country":"TBD","launch_date":"2025-11-02","launch_site_code":"AFETR","launch_vehicle":null,"mission":null,"orbit_class":"UNKNOWN","rcs_meters":null,"size_class":null,"mass_kg":null,"dimensions":null,"purposes":[],"wikipedia_slug":null,"has_3d_model":false,"image_url":null,"decayed_at":null,"tle_current":{"epoch":"2026-05-24T15:31:48.619200Z","epoch_age_seconds":102601,"freshness":"FRESH","line1":"1 66296U 25248D   26144.64709050  .00005008  00000+0  23195-3 0  9993","line2":"2 66296  45.4043 246.7507 0006619 284.5754  75.4399 15.21341834 30944","mean_motion":15.21341834,"eccentricity":0.0006619,"inclination_deg":45.4043,"raan_deg":246.7507,"arg_perigee_deg":284.5754,"mean_anomaly_deg":75.4399,"bstar":0.00023195,"rev_number":3094,"period_min":94.653283556521,"perigee_km":497.23838281436,"apogee_km":506.34603309985,"semimajor_km":6879.9292079571,"source":"CELESTRAK","updated_at":"2026-05-25T13:38:06.104925Z"}}}